Greenville/Spartanburg, SC

4:04 PM EDT on April 30, 2017 (GMT -0400)
Greenville-Spartanburg International

Weather History for KGSP - May, 2013

Change the Weather History Date:

Friday, May 31, 2013

  Actual Average Record
Temperature  
Mean Temperature 77 °F 73 °F  
Max Temperature 86 °F 84 °F 98 °F (1953)
Min Temperature 67 °F 62 °F 43 °F (1984)
Degree Days  
Heating Degree Days 0 0  
Month to date heating degree days 73 39  
Since 1 July heating degree days 2966 3044  
Cooling Degree Days 12 8  
Month to date cooling degree days 125 153  
Year to date cooling degree days 162 201  
Growing Degree Days 26 (Base 50)    
Moisture  
Dew Point 64 °F    
Average Humidity 69    
Maximum Humidity 93    
Minimum Humidity 44    
Precipitation  
Precipitation 0.00 in 0.13 in 2.00 in (1887)
Month to date precipitation 5.77 3.76  
Year to date precipitation 23.16 19.43  
Snow  
Snow 0.00 in 0.00 in 0.00 in ()
Month to date snowfall 0.0 0.0  
Since 1 July snowfall 2.0 4.7  
Snow Depth 0.00 in    
Sea Level Pressure  
Sea Level Pressure 30.16 in    
Wind  
Wind Speed 6 mph (South)    
Max Wind Speed 14 mph    
Max Gust Speed 20 mph    
Visibility 10 miles    
Events      
T = Trace of Precipitation, MM = Missing Value Source: NWS Daily Summary

Daily Weather History Graph

Daily Weather History Graph

Search for Another Location

Airport or City:

Trip Planner

Search our weather history database for the weather conditions in past years. The results will help you decide how hot, cold, wet, or windy it might be!

Date:

Astronomy

May. 31, 2013 Rise Set
Actual Time 6:16 AM EDT 8:36 PM EDT
Civil Twilight 5:47 AM EDT 9:06 PM EDT
Nautical Twilight 5:11 AM EDT 9:41 PM EDT
Astronomical Twilight 4:32 AM EDT 10:20 PM EDT
Moon 1:21 AM EDT (5/31) 1:18 PM EDT (5/31)
Length of Visible Light 15h 18m
Length of Day
14h 20m
Waning Gibbous, 51% of the Moon is Illuminated
May 31
Waning Gibbous
May 31
Last Quarter
Jun 8
New
Jun 16
First Quarter
Jun 23
Full

Hourly Weather History & Observations

Time (EDT) Temp. Heat Index Dew Point Humidity Pressure Visibility Wind Dir Wind Speed Gust Speed Precip Events Conditions
12:53 AM 70.0 °F - 63.0 °F 78% 30.18 in 10.0 mi SSE 4.6 mph - N/A   Mostly Cloudy
1:53 AM 69.1 °F - 63.0 °F 81% 30.19 in 10.0 mi South 5.8 mph - N/A   Partly Cloudy
2:53 AM 69.1 °F - 64.0 °F 84% 30.17 in 10.0 mi South 5.8 mph - N/A   Scattered Clouds
3:53 AM 68.0 °F - 64.0 °F 87% 30.17 in 10.0 mi SW 4.6 mph - N/A   Clear
4:53 AM 68.0 °F - 64.0 °F 87% 30.17 in 10.0 mi Calm Calm - N/A   Scattered Clouds
5:53 AM 66.9 °F - 64.0 °F 90% 30.18 in 10.0 mi Calm Calm - N/A   Mostly Cloudy
6:06 AM 66.2 °F - 64.4 °F 94% 30.21 in 10.0 mi Calm Calm - N/A   Mostly Cloudy
6:32 AM 66.2 °F - 64.4 °F 94% 30.21 in 10.0 mi South 3.5 mph - N/A   Overcast
6:53 AM 66.9 °F - 64.0 °F 90% 30.19 in 10.0 mi Calm Calm - N/A   Overcast
7:53 AM 70.0 °F - 64.9 °F 84% 30.21 in 10.0 mi SW 4.6 mph - N/A   Overcast
8:09 AM 71.6 °F - 64.4 °F 78% 30.24 in 10.0 mi South 5.8 mph - N/A   Mostly Cloudy
8:53 AM 73.0 °F - 66.0 °F 79% 30.21 in 10.0 mi SW 9.2 mph - N/A   Mostly Cloudy
9:48 AM 75.2 °F - 66.2 °F 73% 30.24 in 10.0 mi SW 9.2 mph - N/A   Scattered Clouds
9:53 AM 75.9 °F - 66.0 °F 71% 30.21 in 10.0 mi SW 8.1 mph - N/A   Scattered Clouds
10:53 AM 79.0 °F - 66.0 °F 64% 30.20 in 10.0 mi SSW 5.8 mph - N/A   Scattered Clouds
11:53 AM 78.1 °F - 63.0 °F 60% 30.20 in 10.0 mi WSW 9.2 mph - N/A   Scattered Clouds
12:53 PM 81.0 °F 82.2 °F 63.0 °F 54% 30.18 in 10.0 mi SSE 8.1 mph - N/A   Clear
1:53 PM 81.0 °F 82.2 °F 63.0 °F 54% 30.17 in 10.0 mi South 9.2 mph - N/A   Scattered Clouds
2:53 PM 82.9 °F 83.7 °F 62.1 °F 49% 30.14 in 10.0 mi South 6.9 mph - N/A   Scattered Clouds
3:53 PM 84.9 °F 85.4 °F 62.1 °F 46% 30.12 in 10.0 mi SSW 9.2 mph - N/A   Scattered Clouds
4:53 PM 84.0 °F 84.4 °F 61.0 °F 46% 30.10 in 10.0 mi South 10.4 mph 19.6 mph N/A   Scattered Clouds
5:53 PM 82.9 °F 83.3 °F 61.0 °F 47% 30.09 in 10.0 mi South 8.1 mph - N/A   Partly Cloudy
6:53 PM 82.9 °F 83.2 °F 60.1 °F 46% 30.09 in 10.0 mi SSW 8.1 mph - N/A   Clear
7:53 PM 81.0 °F 81.9 °F 62.1 °F 52% 30.08 in 10.0 mi SSW 4.6 mph - N/A   Clear
8:53 PM 77.0 °F - 63.0 °F 62% 30.09 in 10.0 mi SSE 4.6 mph - N/A   Clear
9:53 PM 73.9 °F - 64.0 °F 71% 30.09 in 10.0 mi SSE 3.5 mph - N/A   Clear
10:53 PM 72.0 °F - 64.0 °F 76% 30.09 in 10.0 mi Calm Calm - N/A   Mostly Cloudy
11:53 PM 73.0 °F - 64.9 °F 76% 30.09 in 10.0 mi SSE 8.1 mph - N/A   Mostly Cloudy